TimePDT,TemperatureF,Dew PointF,Humidity,Sea Level PressureIn,VisibilityMPH,Wind Direction,Wind SpeedMPH,Gust SpeedMPH,PrecipitationIn,Events,Conditions,WindDirDegrees,DateUTC
12:54 AM,61.0,41.0,48,30.14,10.0,Calm,Calm,-,N/A,,Clear,0,2013-05-03 07:54:00
1:54 AM,59.0,50.0,72,30.12,10.0,Calm,Calm,-,N/A,,Clear,0,2013-05-03 08:54:00
2:54 AM,55.0,45.0,69,30.10,10.0,East,3.5,-,N/A,,Clear,80,2013-05-03 09:54:00
3:54 AM,55.9,42.1,60,30.09,10.0,Calm,Calm,-,N/A,,Clear,0,2013-05-03 10:54:00
4:54 AM,57.0,39.0,51,30.07,10.0,Calm,Calm,-,N/A,,Clear,0,2013-05-03 11:54:00
5:54 AM,55.0,37.0,51,30.07,10.0,ESE,3.5,-,N/A,,Clear,110,2013-05-03 12:54:00
6:54 AM,57.9,37.0,46,30.06,10.0,Calm,Calm,-,N/A,,Clear,0,2013-05-03 13:54:00
7:54 AM,66.0,37.9,36,30.05,10.0,SSE,16.1,26.5,N/A,,Clear,160,2013-05-03 14:54:00
8:54 AM,69.1,44.1,40,30.03,10.0,Calm,Calm,-,N/A,,Clear,0,2013-05-03 15:54:00
9:54 AM,64.0,46.9,54,30.03,10.0,West,5.8,-,N/A,,Clear,260,2013-05-03 16:54:00
10:54 AM,78.1,42.1,28,30.01,10.0,West,3.5,-,N/A,,Clear,270,2013-05-03 17:54:00
11:54 AM,66.9,46.9,49,30.01,10.0,NW,8.1,-,N/A,,Clear,310,2013-05-03 18:54:00
12:54 PM,68.0,46.9,47,30.00,10.0,Variable,6.9,-,N/A,,Clear,0,2013-05-03 19:54:00
1:54 PM,68.0,48.9,50,29.99,10.0,NNW,5.8,-,N/A,,Clear,340,2013-05-03 20:54:00
2:54 PM,69.1,46.9,45,29.97,10.0,NW,4.6,-,N/A,,Clear,310,2013-05-03 21:54:00
3:54 PM,72.0,41.0,33,29.94,10.0,Variable,3.5,-,N/A,,Clear,0,2013-05-03 22:54:00
4:54 PM,72.0,39.9,31,29.93,10.0,NNW,5.8,-,N/A,,Clear,340,2013-05-03 23:54:00
5:54 PM,68.0,46.9,47,29.92,10.0,Variable,4.6,-,N/A,,Clear,0,2013-05-04 00:54:00
6:54 PM,66.0,44.1,45,29.91,10.0,NNE,3.5,-,N/A,,Clear,20,2013-05-04 01:54:00
7:54 PM,64.0,44.1,48,29.90,10.0,Calm,Calm,-,N/A,,Clear,0,2013-05-04 02:54:00
8:54 PM,59.0,44.1,58,29.91,10.0,Calm,Calm,-,N/A,,Clear,0,2013-05-04 03:54:00
9:54 PM,57.0,41.0,55,29.91,10.0,East,4.6,-,N/A,,Clear,80,2013-05-04 04:54:00
10:54 PM,57.0,39.0,51,29.88,10.0,Calm,Calm,-,N/A,,Clear,0,2013-05-04 05:54:00
11:54 PM,55.0,50.0,83,29.87,8.0,Calm,Calm,-,N/A,,Clear,0,2013-05-04 06:54:00